EN

Hourly Weather Torquay

Today, 24 July, Saturday

Time Temperature Precipitation Wind Pressure Humidity
00:00 +16°C° 0 mm 9 mps 755 mmHg 88%
01:00 +15°C° 1.7 mm 9 mps 755 mmHg 91%
02:00 +15°C° 1.7 mm 9 mps 754 mmHg 93%
03:00 +15°C° 1.7 mm 8 mps 754 mmHg 96%
04:00 +15°C° 0.2 mm 8 mps 754 mmHg 96%
05:00 +15°C° 0.2 mm 8 mps 754 mmHg 96%
06:00 +13°C° 0.2 mm 8 mps 753 mmHg 95%
07:00 +15°C° 0.1 mm 7 mps 753 mmHg 96%
08:00 +15°C° 0.1 mm 6 mps 754 mmHg 96%
09:00 +16°C° 0.1 mm 5 mps 754 mmHg 96%
10:00 +17°C° 0.1 mm 5 mps 754 mmHg 94%
11:00 +19°C° 0.1 mm 5 mps 754 mmHg 91%
12:00 +20°C° 0.1 mm 5 mps 754 mmHg 89%
13:00 +20°C° 0.1 mm 5 mps 754 mmHg 84%
14:00 +21°C° 0.1 mm 5 mps 754 mmHg 79%
15:00 +22°C° 0.1 mm 5 mps 754 mmHg 75%
16:00 +21°C° 0 mm 5 mps 754 mmHg 76%
17:00 +21°C° 0 mm 4 mps 754 mmHg 77%
18:00 +20°C° 0 mm 4 mps 754 mmHg 78%
19:00 +19°C° 0 mm 4 mps 755 mmHg 83%
20:00 +18°C° 0 mm 3 mps 755 mmHg 87%
21:00 +17°C° 0 mm 3 mps 755 mmHg 91%
22:00 +17°C° 0 mm 3 mps 755 mmHg 92%
23:00 +16°C° 0 mm 3 mps 755 mmHg 93%

Tomorrow, 25 July, Sunday

Time Temperature Precipitation Wind Pressure Humidity
00:00 +16°C° 0 mm 2 mps 755 mmHg 94%
01:00 +16°C° 0 mm 3 mps 755 mmHg 95%
02:00 +16°C° 0 mm 3 mps 755 mmHg 96%
03:00 +16°C° 0 mm 3 mps 755 mmHg 96%
04:00 +17°C° 0.1 mm 3 mps 755 mmHg 95%
05:00 +17°C° 0.1 mm 3 mps 755 mmHg 95%
06:00 +17°C° 0.1 mm 3 mps 756 mmHg 94%
07:00 +18°C° 0.1 mm 4 mps 756 mmHg 91%
08:00 +18°C° 0.1 mm 4 mps 756 mmHg 88%
09:00 +19°C° 0.1 mm 4 mps 756 mmHg 84%
10:00 +20°C° 0 mm 4 mps 756 mmHg 81%
11:00 +21°C° 0 mm 3 mps 756 mmHg 77%
12:00 +22°C° 0 mm 3 mps 756 mmHg 73%
13:00 +22°C° 0.1 mm 3 mps 756 mmHg 71%
14:00 +23°C° 0.1 mm 2 mps 756 mmHg 69%
15:00 +24°C° 0.1 mm 2 mps 756 mmHg 67%
16:00 +24°C° 0.1 mm 2 mps 756 mmHg 69%
17:00 +23°C° 0.1 mm 2 mps 757 mmHg 71%
18:00 +22°C° 0.1 mm 3 mps 757 mmHg 74%
19:00 +20°C° 0 mm 3 mps 757 mmHg 80%
20:00 +18°C° 0 mm 3 mps 757 mmHg 85%
21:00 +17°C° 0 mm 2 mps 758 mmHg 91%
22:00 +16°C° 0 mm 2 mps 758 mmHg 92%
23:00 +16°C° 0 mm 3 mps 758 mmHg 92%

Day after tomorrow, 26 July, Monday

Time Temperature Precipitation Wind Pressure Humidity
00:00 +14°C° 0 mm 3 mps 758 mmHg 92%
01:00 +14°C° 0 mm 3 mps 758 mmHg 92%
02:00 +13°C° 0 mm 3 mps 758 mmHg 91%
03:00 +13°C° 0 mm 3 mps 758 mmHg 91%
04:00 +15°C° 0 mm 2 mps 758 mmHg 90%
05:00 +15°C° 0 mm 2 mps 758 mmHg 89%
06:00 +16°C° 0 mm 2 mps 758 mmHg 88%
07:00 +18°C° 0 mm 2 mps 758 mmHg 83%
08:00 +20°C° 0 mm 3 mps 758 mmHg 77%
09:00 +22°C° 0 mm 3 mps 759 mmHg 71%
10:00 +22°C° 0.2 mm 4 mps 759 mmHg 71%
11:00 +23°C° 0.2 mm 4 mps 758 mmHg 71%
12:00 +23°C° 0.2 mm 5 mps 758 mmHg 71%
13:00 +23°C° 0.3 mm 5 mps 758 mmHg 71%
14:00 +23°C° 0.3 mm 5 mps 758 mmHg 71%
15:00 +23°C° 0.3 mm 6 mps 758 mmHg 71%
16:00 +22°C° 0.1 mm 5 mps 758 mmHg 76%
17:00 +21°C° 0.1 mm 5 mps 758 mmHg 81%
18:00 +20°C° 0.1 mm 5 mps 757 mmHg 85%
19:00 +20°C° 0.3 mm 5 mps 758 mmHg 88%
20:00 +19°C° 0.3 mm 5 mps 758 mmHg 91%
21:00 +17°C° 0.3 mm 5 mps 758 mmHg 94%
22:00 +17°C° 0.3 mm 4 mps 758 mmHg 94%
23:00 +17°C° 0.3 mm 4 mps 758 mmHg 94%

27 July, Tuesday

Time Temperature Precipitation Wind Pressure Humidity
00:00 +15°C° 0.3 mm 4 mps 758 mmHg 95%
01:00 +15°C° 0.1 mm 4 mps 757 mmHg 94%
02:00 +15°C° 0.1 mm 4 mps 757 mmHg 94%
03:00 +16°C° 0.1 mm 3 mps 757 mmHg 94%
04:00 +16°C° 0 mm 3 mps 757 mmHg 93%
05:00 +16°C° 0 mm 3 mps 757 mmHg 91%
06:00 +17°C° 0 mm 3 mps 757 mmHg 90%
07:00 +18°C° 0.1 mm 3 mps 757 mmHg 85%
08:00 +19°C° 0.1 mm 3 mps 757 mmHg 80%
09:00 +21°C° 0.1 mm 3 mps 757 mmHg 75%
10:00 +21°C° 0.3 mm 4 mps 757 mmHg 75%
11:00 +21°C° 0.3 mm 4 mps 757 mmHg 75%
12:00 +22°C° 0.3 mm 5 mps 757 mmHg 74%
13:00 +21°C° 0.3 mm 5 mps 757 mmHg 76%
14:00 +21°C° 0.3 mm 5 mps 757 mmHg 77%
15:00 +20°C° 0.3 mm 6 mps 757 mmHg 78%
16:00 +20°C° 0.1 mm 5 mps 757 mmHg 78%
17:00 +19°C° 0.1 mm 5 mps 757 mmHg 78%
18:00 +19°C° 0.1 mm 5 mps 757 mmHg 78%
19:00 +17°C° 0 mm 5 mps 757 mmHg 82%
20:00 +15°C° 0 mm 4 mps 757 mmHg 86%
21:00 +14°C° 0 mm 4 mps 758 mmHg 90%
22:00 +14°C° 0 mm 4 mps 757 mmHg 91%
23:00 +13°C° 0 mm 4 mps 757 mmHg 92%

28 July, Wednesday

Time Temperature Precipitation Wind Pressure Humidity
00:00 +13°C° 0 mm 4 mps 757 mmHg 94%
01:00 +13°C° 0 mm 5 mps 757 mmHg 94%
02:00 +13°C° 0 mm 5 mps 757 mmHg 94%
03:00 +13°C° 0 mm 6 mps 756 mmHg 94%
04:00 +13°C° 0 mm 6 mps 756 mmHg 93%
05:00 +13°C° 0 mm 6 mps 756 mmHg 92%
06:00 +14°C° 0 mm 6 mps 756 mmHg 91%
07:00 +15°C° 0.2 mm 7 mps 756 mmHg 87%
08:00 +16°C° 0.2 mm 8 mps 756 mmHg 83%
09:00 +17°C° 0.2 mm 8 mps 756 mmHg 79%
10:00 +18°C° 0.3 mm 9 mps 756 mmHg 76%
11:00 +18°C° 0.3 mm 9 mps 756 mmHg 73%
12:00 +18°C° 0.3 mm 10 mps 756 mmHg 70%
13:00 +18°C° 0.3 mm 10 mps 756 mmHg 70%
14:00 +18°C° 0.3 mm 9 mps 756 mmHg 71%
15:00 +18°C° 0.3 mm 9 mps 756 mmHg 72%
16:00 +17°C° 0.1 mm 9 mps 756 mmHg 72%
17:00 +17°C° 0.1 mm 9 mps 756 mmHg 73%
18:00 +17°C° 0.1 mm 9 mps 756 mmHg 73%
19:00 +15°C° 0 mm 8 mps 756 mmHg 77%
20:00 +13°C° 0 mm 8 mps 756 mmHg 80%
21:00 +12°C° 0 mm 7 mps 756 mmHg 84%
22:00 +12°C° 0 mm 7 mps 756 mmHg 84%
23:00 +12°C° 0 mm 8 mps 756 mmHg 85%

29 July, Thursday

Time Temperature Precipitation Wind Pressure Humidity
00:00 +12°C° 0 mm 8 mps 756 mmHg 85%
01:00 +12°C° 0.1 mm 8 mps 755 mmHg 86%
02:00 +12°C° 0.1 mm 8 mps 755 mmHg 87%
03:00 +12°C° 0.1 mm 8 mps 755 mmHg 87%
04:00 +12°C° 0.1 mm 8 mps 755 mmHg 86%
05:00 +12°C° 0.1 mm 8 mps 755 mmHg 85%
06:00 +12°C° 0.1 mm 8 mps 754 mmHg 84%
07:00 +13°C° 0.1 mm 9 mps 754 mmHg 83%
08:00 +14°C° 0.1 mm 10 mps 754 mmHg 82%
09:00 +16°C° 0.1 mm 11 mps 754 mmHg 81%
10:00 +17°C° 0.4 mm 11 mps 754 mmHg 80%
11:00 +17°C° 0.4 mm 11 mps 754 mmHg 80%
12:00 +17°C° 0.4 mm 11 mps 754 mmHg 79%
13:00 +17°C° 0.1 mm 11 mps 755 mmHg 81%
14:00 +17°C° 0.1 mm 12 mps 755 mmHg 82%
15:00 +15°C° 0.1 mm 12 mps 755 mmHg 84%
16:00 +16°C° 0.1 mm 11 mps 756 mmHg 85%
17:00 +16°C° 0.1 mm 10 mps 756 mmHg 86%
18:00 +16°C° 0.1 mm 9 mps 756 mmHg 87%
19:00 +16°C° 0 mm 9 mps 757 mmHg 88%
20:00 +15°C° 0 mm 8 mps 757 mmHg 88%
21:00 +15°C° 0 mm 7 mps 758 mmHg 89%
22:00 +14°C° 0 mm 6 mps 758 mmHg 91%
23:00 +14°C° 0 mm 6 mps 758 mmHg 92%
Show more